EHI
32 37 39 37 41 46 46 43 39 36 32 29 26 22 18 15 13 13 15 16 15 13 12 13 10 7 6 6 4 4 5 4 3 2 1 2 2 1 1 2 2 1 1
35 40 41 39 41 44 44 43 41 38 34 31 28 24 20 17 15 14 14 14 13 12 13 13 10 6 5 6 5 5 4 3 3 3 1 1 1 2 2 3 4 3 2
36 40 42 41 41 41 41 43 43 41 37 33 30 25 21 17 15 14 13 11 11 12 13 11 8 4 4 5 6 6 4 2 3 2 1 1 1 2 3 4 4 3 3
33 37 40 40 40 38 39 44 46 42 37 34 30 25 20 16 13 12 11 10 10 11 11 9 6 3 2 3 4 4 3 2 2 2 2 2 1 1 2 2 2 2 1
30 34 37 38 37 36 37 43 46 42 37 32 29 26 21 15 12 12 11 10 8 7 7 6 5 3 1 1 2 2 3 2 2 2 2 2 2 1 1 1 1 1 0
28 31 33 34 34 34 35 39 43 40 35 29 26 25 23 18 14 13 12 9 6 5 5 5 5 4 1 0 0 1 3 2 1 1 1 2 1 1 1 0 0 0 0
25 27 30 31 31 32 32 34 38 38 32 28 25 24 22 19 16 14 12 8 5 5 6 6 6 5 2 0 0 1 2 2 1 0 1 2 1 1 1 1 0 0 0
24 24 26 28 29 30 30 31 34 34 31 28 25 22 20 17 15 13 10 7 6 6 8 8 7 5 3 1 0 0 2 2 1 0 1 2 2 2 2 2 1 0 0
20 20 21 25 28 29 30 29 31 32 30 28 25 21 19 17 14 12 9 7 7 7 7 9 8 5 3 1 0 1 1 2 2 2 1 2 3 3 3 3 1 0 0
15 15 18 22 25 28 29 27 28 29 27 25 22 19 17 16 14 12 9 8 8 8 7 7 7 6 4 2 1 1 1 1 2 3 3 2 2 3 3 2 1 0 0
14 15 15 16 19 23 24 22 22 24 24 22 19 16 14 14 13 11 10 9 10 9 8 7 6 6 4 2 1 1 0 0 1 3 2 1 2 3 3 2 1 0 0
15 14 13 11 12 15 16 16 15 17 18 18 16 14 13 12 11 11 11 11 11 9 7 6 5 4 2 1 1 0 0 0 1 2 2 1 1 1 2 2 1 0 0
15 14 13 12 12 13 13 12 11 11 12 12 12 13 13 13 11 12 13 13 10 8 7 5 4 3 1 0 0 1 1 0 1 2 2 1 1 1 2 2 1 0 0
16 17 17 16 16 15 13 11 9 8 8 8 10 12 15 14 12 11 12 11 9 7 5 4 4 2 1 0 0 1 1 1 0 1 1 1 1 2 2 1 0 0 0
17 19 19 20 20 19 15 11 8 7 7 7 8 11 14 15 13 11 9 7 6 5 4 3 3 2 1 0 0 1 1 1 0 0 0 0 0 1 1 1 0 0 0
17 18 21 23 24 22 17 12 8 7 8 7 7 9 13 14 12 10 7 5 4 3 2 2 1 1 0 0 0 0 0 0 0 0 0 0 0 0 0 0 0 0 0
18 19 23 27 27 25 20 13 8 8 9 8 7 9 11 12 12 9 7 5 4 3 2 1 0 0 0 0 0 0 0 0 0 0 0 0 0 0 0 0 0 0 0
21 21 24 27 26 23 18 13 9 9 9 9 8 9 10 12 13 12 8 6 6 5 3 2 2 2 1 0 0 0 0 0 0 0 0 0 0 0 0 0 0 0 0
22 22 23 22 20 18 15 12 10 10 11 10 8 9 11 12 14 16 13 9 8 8 6 5 4 3 1 0 0 0 0 0 0 0 0 0 0 0 0 0 0 0 0
21 20 19 17 15 14 13 12 9 9 9 9 9 10 13 13 15 18 17 12 9 8 7 6 5 3 1 0 0 0 0 0 0 0 0 0 0 0 0 0 0 0 0
18 17 15 14 13 13 13 11 8 6 6 7 9 11 13 12 13 17 17 13 8 6 6 6 5 4 2 0 0 0 0 0 0 0 0 0 0 0 0 0 0 0 0
15 14 13 13 13 13 12 10 7 4 4 6 7 8 9 8 9 12 12 9 6 4 5 5 5 3 2 1 0 0 0 0 0 0 0 1 0 0 0 0 0 0 0
14 14 14 13 12 11 10 8 6 5 5 4 4 4 5 5 6 7 7 5 3 2 2 4 3 2 2 1 0 0 0 0 0 0 0 0 0 0 0 0 0 0 0
14 14 14 13 11 10 9 7 5 5 5 3 3 4 4 4 5 6 4 3 2 1 2 3 2 1 1 2 1 0 0 0 0 0 0 0 0 0 0 0 0 0 0
15 14 14 13 11 9 8 7 6 6 5 3 3 4 3 3 4 4 3 2 1 1 1 2 1 0 0 1 0 0 0 0 0 0 0 0 0 0 0 0 0 0 0
16 14 13 13 11 9 7 7 6 6 5 4 3 3 3 3 3 3 2 1 1 0 0 1 0 0 0 0 0 0 0 0 0 0 0 0 0 0 0 0 0 0 0
Wind_Speed
10 11 10 10 10 8 8 7 6 5 4 3 2 2 2 1 1 2 2 2 1 1 0 1 0 1 1 1 1 1 1 2 1 2 1 2 3 3 2 2 2 3 3
10 10 11 10 10 9 8 8 6 6 4 3 2 2 2 1 2 1 2 2 1 1 1 1 1 1 1 1 1 1 1 1 0 1 1 1 1 1 3 2 3 3 2
10 10 11 10 11 10 9 8 7 6 5 4 2 2 2 1 1 1 2 1 1 1 0 1 1 1 1 2 2 1 1 1 1 1 0 0 0 1 1 2 2 2 2
10 10 10 10 9 10 10 8 7 6 5 4 3 3 2 2 1 1 1 1 1 2 2 1 1 1 1 1 2 1 1 1 1 1 1 1 0 1 1 1 1 1 2
10 10 10 10 9 9 9 8 7 6 5 4 4 3 2 2 1 1 2 2 2 2 2 2 1 1 1 1 1 1 1 1 1 1 1 1 1 2 1 2 1 1 1
9 10 10 9 8 9 9 9 8 6 5 5 4 3 3 2 2 2 2 2 2 2 2 2 2 2 1 1 1 1 1 1 1 1 1 1 1 1 1 2 2 2 1
9 9 10 10 9 9 9 9 9 7 6 5 4 3 3 3 3 3 3 2 2 2 2 2 2 2 2 2 2 2 2 2 2 1 1 1 1 1 1 1 2 2 2
8 8 9 9 9 9 8 8 8 7 7 5 4 4 3 3 2 2 2 2 1 1 2 2 2 2 3 3 2 2 2 2 2 2 2 1 1 1 1 2 1 2 2
7 7 6 7 8 8 8 7 7 6 6 6 5 4 4 3 2 2 2 1 1 2 2 2 3 2 2 2 2 2 2 2 2 2 2 2 1 1 1 1 1 1 2
6 5 5 6 6 6 7 6 6 6 5 5 4 4 3 2 2 2 2 2 2 2 2 2 2 2 2 3 2 2 2 3 2 2 1 1 1 1 1 1 2 1 2
6 5 5 5 5 6 6 6 5 5 5 5 4 3 3 3 2 2 2 2 2 2 2 3 2 2 2 2 2 2 3 3 2 2 2 2 2 1 1 1 1 1 1
7 6 6 5 5 4 5 4 4 4 3 3 3 3 3 2 2 2 2 2 2 3 3 3 3 3 3 3 3 3 3 3 2 2 1 1 1 1 2 1 2 2 2
7 6 5 5 4 4 3 3 3 2 2 3 3 3 3 2 2 2 2 2 2 2 2 2 3 3 3 3 2 3 2 2 2 2 2 1 1 2 1 2 2 2 2
5 5 4 4 4 3 3 2 2 2 1 2 3 3 3 2 2 2 2 2 2 2 2 2 2 2 2 2 2 3 3 3 2 2 2 2 2 2 2 3 2 2 2
5 4 4 4 4 3 2 2 1 2 2 2 2 2 2 2 2 2 1 1 1 1 2 2 2 2 2 2 2 2 3 2 2 2 2 2 2 2 2 2 2 2 2
5 4 4 4 3 2 2 1 1 1 1 1 2 2 2 2 2 2 2 1 1 1 1 1 1 1 1 1 1 0 1 2 2 2 2 2 3 3 4 3 3 3 3
4 4 4 3 3 2 1 1 0 1 2 2 1 1 2 2 2 2 1 2 1 1 1 1 1 1 1 1 1 1 1 2 2 2 2 4 3 3 2 3 4 4 6
3 3 3 3 3 2 1 1 1 1 1 1 2 1 1 1 2 2 2 1 1 1 1 1 1 1 1 2 2 2 1 1 2 2 3 3 2 2 2 2 2 2 3
3 3 3 3 2 1 1 1 1 1 1 1 1 1 1 1 1 1 2 2 2 2 2 2 2 2 2 3 3 3 2 2 2 3 2 2 1 1 1 1 2 3 3
3 3 3 3 2 1 1 1 1 1 1 1 1 0 0 1 1 2 2 2 2 2 2 2 2 2 2 3 4 4 2 2 2 2 2 2 1 1 1 2 2 3 3
4 4 3 3 2 1 1 1 0 1 1 1 1 0 0 1 2 2 2 2 2 3 3 3 2 2 3 4 5 4 3 2 2 2 2 1 2 1 3 3 3 4 4
4 3 3 2 2 1 1 1 0 1 2 1 1 1 1 1 1 1 1 2 2 3 3 3 3 2 2 3 5 6 5 4 2 2 1 1 3 5 5 4 5 6 5
3 2 2 2 2 1 1 1 0 1 1 2 2 1 1 1 1 1 2 2 2 3 3 3 3 3 2 3 4 5 5 5 3 2 2 3 5 5 5 6 6 5 4
2 2 2 2 1 1 0 0 0 1 1 1 2 1 1 1 1 1 1 1 1 2 2 2 2 2 2 2 2 3 3 4 4 4 4 5 6 6 5 4 5 4 4
2 1 2 1 1 0 1 1 0 0 1 1 2 2 2 1 1 1 1 1 1 1 2 2 2 2 2 2 3 3 3 3 3 3 3 4 3 3 4 4 4 4 4
1 1 1 1 1 0 1 1 1 0 1 2 3 3 2 2 2 2 1 1 1 2 3 3 3 2 2 3 3 3 3 4 4 3 4 4 5 4 4 4 3 3 3
Wind_Direction
168 158 152 150 148 146 149 149 149 146 148 144 165 162 159 155 144 150 137 149 151 135 210 102 172 256 159 170 223 255 252 237 235 270 267 231 213 189 193 201 203 205 200
158 152 153 157 154 153 152 152 159 156 156 150 161 163 157 191 163 136 139 154 142 146 178 107 198 241 170 167 241 258 280 269 215 275 290 254 227 219 208 188 192 193 193
159 155 160 164 161 158 157 161 162 155 159 152 155 156 156 175 142 156 149 150 159 160 189 153 190 230 208 180 204 236 246 278 275 238 257 314 343 291 235 221 201 170 171
158 157 159 163 163 159 158 151 150 152 157 157 165 178 176 175 189 167 145 156 191 192 191 174 186 208 227 201 221 193 247 252 266 256 220 179 180 281 309 276 231 207 197
158 159 159 158 159 158 155 148 149 152 157 164 173 185 186 177 161 156 163 178 203 214 200 180 181 197 217 205 233 187 237 242 250 264 238 253 233 229 234 269 273 270 221
149 154 155 156 156 153 151 149 152 157 161 173 180 185 185 184 190 183 183 192 197 210 211 193 181 192 197 200 210 209 211 228 242 269 253 245 242 244 240 257 263 266 249
153 154 157 161 158 156 155 155 155 163 171 179 185 189 191 199 200 197 194 201 203 206 201 196 187 197 201 200 200 199 211 215 227 248 269 263 257 265 256 254 272 280 270
150 153 156 156 159 159 157 158 159 168 174 180 186 188 192 207 206 207 211 209 216 203 181 181 194 208 213 204 196 194 206 202 215 225 240 267 263 256 239 250 255 286 286
136 140 146 152 151 155 157 160 162 170 179 182 180 184 190 206 200 201 220 205 203 201 176 187 197 213 218 203 206 197 211 206 205 211 223 245 257 249 254 264 253 246 271
114 124 133 136 136 141 146 152 160 170 179 181 183 180 182 191 188 198 201 210 207 191 182 190 198 203 214 211 207 198 208 202 196 200 213 249 278 291 273 271 286 267 245
120 113 112 115 120 129 143 151 160 170 177 179 174 171 174 184 190 205 215 216 203 197 205 200 202 209 204 205 204 209 207 202 194 207 194 225 240 255 270 272 269 268 255
115 116 118 121 127 132 130 135 151 168 172 165 162 161 163 173 194 202 215 224 210 211 211 198 196 214 208 198 206 218 205 196 192 198 196 244 265 260 268 278 276 268 247
115 111 112 123 128 120 121 130 133 145 158 154 159 150 158 176 202 214 219 224 224 226 206 192 201 214 212 202 203 210 214 212 205 204 203 228 264 282 281 276 276 278 275
115 112 112 116 107 109 124 130 143 135 131 147 152 154 170 186 200 212 226 221 219 207 196 200 215 217 216 205 212 214 219 220 216 215 212 219 229 251 262 268 275 278 279
128 125 121 112 110 106 107 110 113 119 124 152 161 164 171 187 195 206 210 215 211 204 192 200 217 216 209 207 210 212 208 206 214 219 215 220 226 223 246 269 278 277 272
145 129 122 122 120 105 94 87 92 117 143 169 168 167 175 180 195 197 185 191 198 187 175 199 222 216 239 136 144 178 177 188 213 221 215 215 222 216 231 249 263 258 256
129 125 122 120 114 105 90 107 124 171 169 160 146 172 179 178 194 190 173 193 195 183 210 215 199 167 81 134 173 188 186 204 223 233 237 250 233 215 223 234 246 255 260
126 120 115 113 110 115 119 179 180 204 192 164 163 182 190 195 186 172 185 194 186 184 211 227 227 189 183 172 185 207 206 231 243 244 242 243 251 250 249 262 280 275 278
109 111 119 119 111 114 134 205 206 216 209 200 207 199 195 185 179 186 203 202 195 201 209 217 220 210 193 192 193 187 222 234 253 256 256 242 235 255 251 244 269 285 284
107 114 118 117 119 121 182 230 239 244 270 285 285 243 214 199 194 206 217 214 206 204 215 223 217 209 198 197 199 196 224 237 247 257 251 225 205 116 212 244 264 273 278
118 119 125 131 141 167 213 233 273 308 309 318 311 297 221 203 190 197 202 206 214 207 214 220 218 211 207 193 200 201 224 249 256 261 258 209 177 211 250 260 261 265 278
111 113 118 129 150 169 189 229 309 317 318 319 312 318 311 279 211 171 193 214 226 214 210 215 217 218 207 186 198 205 222 253 277 278 279 218 215 234 246 249 258 269 280
107 118 140 139 134 146 181 247 284 298 316 325 320 309 313 301 253 221 205 217 228 231 225 223 221 216 205 195 196 201 226 244 255 281 293 266 249 253 246 241 250 259 256
118 121 122 119 121 143 187 309 311 314 318 312 307 291 276 256 241 262 239 221 254 259 245 239 231 226 203 188 189 201 223 232 241 257 263 257 253 254 257 248 238 234 243
93 104 113 114 118 234 240 245 275 335 316 298 290 284 266 258 219 228 272 267 240 250 256 266 262 250 234 225 205 210 223 232 240 244 244 247 244 238 241 236 227 226 231
97 85 81 85 70 330 308 325 3 231 269 278 283 284 273 246 233 219 230 328 250 253 252 249 249 271 232 210 197 213 224 229 229 230 245 247 248 243 233 229 227 218 220